Time,TemperatureF,DewpointF,PressureIn,WindDirection,WindDirectionDegrees,WindSpeedMPH,WindSpeedGustMPH,Humidity,HourlyPrecipIn,Conditions,Clouds,dailyrainin,SoftwareType,DateUTC
2013-01-01 00:25:00,33.7,23.0,29.81,SSW,195,4.0,8.0,64,0.00,,,0.00,weatherlink.com 1.10,2013-01-01 05:25:00,
2013-01-01 00:40:00,33.7,23.0,29.80,SW,217,0.0,8.0,65,0.00,,,0.00,weatherlink.com 1.10,2013-01-01 05:40:00,
2013-01-01 00:55:00,33.6,23.0,29.80,SW,232,2.0,5.0,65,0.00,,,0.00,weatherlink.com 1.10,2013-01-01 05:55:00,
2013-01-01 01:10:00,33.7,23.0,29.80,SW,222,0.0,5.0,65,0.00,,,0.00,weatherlink.com 1.10,2013-01-01 06:10:00,
2013-01-01 01:25:00,33.8,23.0,29.80,West,259,2.0,6.0,65,0.00,,,0.00,weatherlink.com 1.10,2013-01-01 06:25:00,
2013-01-01 01:40:00,34.1,23.0,29.80,West,259,3.0,6.0,64,0.00,,,0.00,weatherlink.com 1.10,2013-01-01 06:40:00,
2013-01-01 01:55:00,34.3,23.0,29.81,WNW,302,1.0,6.0,63,0.00,,,0.00,weatherlink.com 1.10,2013-01-01 06:55:00,
2013-01-01 02:13:00,34.5,23.0,29.80,West,277,5.0,7.0,63,0.00,,,0.00,weatherlink.com 1.10,2013-01-01 07:13:00,
2013-01-01 02:25:00,34.6,23.0,29.80,NW,304,1.0,7.0,62,0.00,,,0.00,weatherlink.com 1.10,2013-01-01 07:25:00,
2013-01-01 02:40:00,34.7,23.0,29.79,SSW,212,4.0,9.0,63,0.00,,,0.00,weatherlink.com 1.10,2013-01-01 07:40:00,
2013-01-01 02:55:00,34.7,23.0,29.79,West,276,1.0,8.0,63,0.00,,,0.00,weatherlink.com 1.10,2013-01-01 07:55:00,
2013-01-01 03:10:00,34.7,23.0,29.79,WSW,238,2.0,6.0,63,0.00,,,0.00,weatherlink.com 1.10,2013-01-01 08:10:00,
2013-01-01 03:25:00,34.8,23.0,29.78,South,190,4.0,10.0,63,0.00,,,0.00,weatherlink.com 1.10,2013-01-01 08:25:00,
2013-01-01 03:41:00,34.9,23.0,29.78,West,274,4.0,8.0,63,0.00,,,0.00,weatherlink.com 1.10,2013-01-01 08:41:00,
2013-01-01 03:56:00,34.9,23.0,29.77,SSW,200,4.0,10.0,63,0.00,,,0.00,weatherlink.com 1.10,2013-01-01 08:56:00,
2013-01-01 04:11:00,34.7,24.0,29.76,WSW,252,3.0,7.0,64,0.00,,,0.00,weatherlink.com 1.10,2013-01-01 09:11:00,
2013-01-01 04:26:00,34.6,24.0,29.77,SSW,200,0.0,6.0,65,0.00,,,0.00,weatherlink.com 1.10,2013-01-01 09:26:00,
2013-01-01 04:41:00,34.7,24.0,29.78,WSW,252,10.0,12.0,64,0.00,,,0.00,weatherlink.com 1.10,2013-01-01 09:41:00,
2013-01-01 04:56:00,34.7,24.0,29.78,SSW,204,4.0,8.0,65,0.00,,,0.00,weatherlink.com 1.10,2013-01-01 09:56:00,
2013-01-01 05:11:00,34.7,24.0,29.78,SSW,203,0.0,9.0,65,0.00,,,0.00,weatherlink.com 1.10,2013-01-01 10:11:00,
2013-01-01 05:26:00,34.7,24.0,29.78,WSW,239,2.0,7.0,66,0.00,,,0.00,weatherlink.com 1.10,2013-01-01 10:26:00,
2013-01-01 05:41:00,34.9,24.0,29.78,SSW,210,3.0,6.0,65,0.00,,,0.00,weatherlink.com 1.10,2013-01-01 10:41:00,
2013-01-01 05:56:00,35.3,25.0,29.78,West,273,3.0,7.0,65,0.00,,,0.00,weatherlink.com 1.10,2013-01-01 10:56:00,
2013-01-01 06:11:00,35.5,25.0,29.78,SSW,195,2.0,10.0,65,0.00,,,0.00,weatherlink.com 1.10,2013-01-01 11:11:00,
2013-01-01 06:26:00,35.4,25.0,29.79,West,273,4.0,12.0,65,0.00,,,0.00,weatherlink.com 1.10,2013-01-01 11:26:00,
2013-01-01 06:41:00,35.3,25.0,29.79,SSW,192,3.0,6.0,65,0.00,,,0.00,weatherlink.com 1.10,2013-01-01 11:41:00,
2013-01-01 06:56:00,35.1,25.0,29.79,West,266,4.0,8.0,66,0.00,,,0.00,weatherlink.com 1.10,2013-01-01 11:56:00,
2013-01-01 07:11:00,35.1,25.0,29.79,West,274,5.0,12.0,66,0.00,,,0.00,weatherlink.com 1.10,2013-01-01 12:11:00,
2013-01-01 07:26:00,35.1,25.0,29.79,SSW,211,3.0,9.0,66,0.00,,,0.00,weatherlink.com 1.10,2013-01-01 12:26:00,
2013-01-01 07:41:00,35.1,25.0,29.80,WNW,288,5.0,7.0,67,0.00,,,0.00,weatherlink.com 1.10,2013-01-01 12:41:00,
2013-01-01 07:56:00,35.5,25.0,29.80,SW,217,4.0,9.0,66,0.00,,,0.00,weatherlink.com 1.10,2013-01-01 12:56:00,
2013-01-01 08:11:00,36.0,24.0,29.80,SSW,199,4.0,16.0,63,0.00,,,0.00,weatherlink.com 1.10,2013-01-01 13:11:00,
2013-01-01 08:26:00,36.3,24.0,29.80,WSW,238,5.0,16.0,62,0.00,,,0.00,weatherlink.com 1.10,2013-01-01 13:26:00,
2013-01-01 08:41:00,36.7,23.0,29.80,WNW,289,2.0,14.0,57,0.00,,,0.00,weatherlink.com 1.10,2013-01-01 13:41:00,
2013-01-01 08:57:00,37.0,21.0,29.81,WSW,255,6.0,17.0,53,0.00,,,0.00,weatherlink.com 1.10,2013-01-01 13:57:00,
2013-01-01 09:11:00,37.5,21.0,29.81,West,273,5.0,12.0,52,0.00,,,0.00,weatherlink.com 1.10,2013-01-01 14:11:00,
2013-01-01 09:26:00,36.9,20.0,29.81,NW,323,5.0,19.0,51,0.00,,,0.00,weatherlink.com 1.10,2013-01-01 14:26:00,
2013-01-01 09:41:00,36.3,19.0,29.82,West,269,4.0,19.0,49,0.00,,,0.00,weatherlink.com 1.10,2013-01-01 14:41:00,
2013-01-01 09:56:00,35.5,17.0,29.82,NNW,330,10.0,22.0,48,0.01,,,0.01,weatherlink.com 1.10,2013-01-01 14:56:00,
2013-01-01 10:11:00,35.9,17.0,29.83,North,1,5.0,20.0,47,0.01,,,0.01,weatherlink.com 1.10,2013-01-01 15:11:00,
2013-01-01 10:26:00,35.9,17.0,29.84,West,266,7.0,20.0,46,0.01,,,0.01,weatherlink.com 1.10,2013-01-01 15:26:00,
2013-01-01 10:41:00,35.9,17.0,29.83,WSW,248,13.0,23.0,46,0.01,,,0.01,weatherlink.com 1.10,2013-01-01 15:41:00,
2013-01-01 10:56:00,35.7,16.0,29.81,West,276,11.0,24.0,44,0.00,,,0.01,weatherlink.com 1.10,2013-01-01 15:56:00,
2013-01-01 11:11:00,35.4,16.0,29.82,West,273,5.0,20.0,45,0.00,,,0.01,weatherlink.com 1.10,2013-01-01 16:11:00,
2013-01-01 11:26:00,35.2,15.0,29.81,WNW,293,8.0,19.0,44,0.00,,,0.01,weatherlink.com 1.10,2013-01-01 16:26:00,
2013-01-01 11:41:00,35.2,15.0,29.81,WNW,284,6.0,24.0,44,0.00,,,0.01,weatherlink.com 1.10,2013-01-01 16:41:00,
2013-01-01 11:56:00,35.0,15.0,29.81,WNW,289,7.0,17.0,44,0.00,,,0.01,weatherlink.com 1.10,2013-01-01 16:56:00,
2013-01-01 12:11:00,34.8,15.0,29.81,West,259,6.0,20.0,44,0.00,,,0.01,weatherlink.com 1.10,2013-01-01 17:11:00,
2013-01-01 12:27:00,34.8,15.0,29.80,NNE,22,4.0,20.0,44,0.00,,,0.01,weatherlink.com 1.10,2013-01-01 17:27:00,
2013-01-01 12:42:00,34.6,15.0,29.79,WNW,300,7.0,22.0,44,0.00,,,0.01,weatherlink.com 1.10,2013-01-01 17:42:00,
2013-01-01 12:57:00,34.2,14.0,29.79,WSW,257,10.0,23.0,44,0.00,,,0.01,weatherlink.com 1.10,2013-01-01 17:57:00,
2013-01-01 13:12:00,34.3,13.0,29.80,WSW,253,11.0,20.0,42,0.00,,,0.01,weatherlink.com 1.10,2013-01-01 18:12:00,
2013-01-01 13:27:00,34.2,14.0,29.80,West,263,13.0,23.0,43,0.00,,,0.01,weatherlink.com 1.10,2013-01-01 18:27:00,
2013-01-01 13:42:00,34.2,14.0,29.78,East,84,4.0,23.0,43,0.00,,,0.01,weatherlink.com 1.10,2013-01-01 18:42:00,
2013-01-01 13:57:00,33.7,14.0,29.79,West,264,9.0,20.0,44,0.00,,,0.01,weatherlink.com 1.10,2013-01-01 18:57:00,
2013-01-01 14:12:00,33.5,14.0,29.80,West,274,4.0,18.0,45,0.00,,,0.01,weatherlink.com 1.10,2013-01-01 19:12:00,
2013-01-01 14:27:00,33.5,14.0,29.80,West,267,8.0,19.0,44,0.00,,,0.01,weatherlink.com 1.10,2013-01-01 19:27:00,
2013-01-01 14:42:00,33.2,14.0,29.80,WNW,285,8.0,18.0,46,0.00,,,0.01,weatherlink.com 1.10,2013-01-01 19:42:00,
2013-01-01 14:57:00,32.8,14.0,29.80,NW,304,7.0,23.0,46,0.00,,,0.01,weatherlink.com 1.10,2013-01-01 19:57:00,
2013-01-01 15:12:00,32.4,14.0,29.80,WSW,243,5.0,14.0,47,0.00,,,0.01,weatherlink.com 1.10,2013-01-01 20:12:00,
2013-01-01 15:42:00,31.8,14.0,29.80,NW,309,9.0,13.0,49,0.00,,,0.01,weatherlink.com 1.10,2013-01-01 20:42:00,
2013-01-01 16:12:00,31.2,13.0,29.82,West,278,10.0,17.0,48,0.00,,,0.01,weatherlink.com 1.10,2013-01-01 21:12:00,
2013-01-01 16:27:00,31.0,14.0,29.82,WNW,295,4.0,13.0,49,0.00,,,0.01,weatherlink.com 1.10,2013-01-01 21:27:00,
2013-01-01 16:42:00,30.8,14.0,29.83,WNW,293,4.0,11.0,50,0.00,,,0.01,weatherlink.com 1.10,2013-01-01 21:42:00,
2013-01-01 16:57:00,30.6,14.0,29.83,NNW,336,6.0,12.0,50,0.00,,,0.01,weatherlink.com 1.10,2013-01-01 21:57:00,
2013-01-01 17:12:00,30.4,14.0,29.84,WSW,252,8.0,9.0,50,0.00,,,0.01,weatherlink.com 1.10,2013-01-01 22:12:00,
2013-01-01 17:27:00,30.2,13.0,29.85,ESE,107,4.0,13.0,50,0.00,,,0.01,weatherlink.com 1.10,2013-01-01 22:27:00,
2013-01-01 17:42:00,30.0,14.0,29.86,South,177,4.0,12.0,51,0.00,,,0.01,weatherlink.com 1.10,2013-01-01 22:42:00,
2013-01-01 17:58:00,29.8,13.0,29.86,WSW,253,8.0,13.0,50,0.00,,,0.01,weatherlink.com 1.10,2013-01-01 22:58:00,
2013-01-01 18:13:00,29.5,12.0,29.87,WNW,300,7.0,19.0,49,0.00,,,0.01,weatherlink.com 1.10,2013-01-01 23:13:00,
2013-01-01 18:43:00,29.0,13.0,29.89,West,263,10.0,13.0,51,0.00,,,0.01,weatherlink.com 1.10,2013-01-01 23:43:00,
2013-01-01 18:58:00,28.6,12.0,29.89,NNW,347,7.0,14.0,51,0.00,,,0.01,weatherlink.com 1.10,2013-01-01 23:58:00,
2013-01-01 19:13:00,28.3,12.0,29.90,WSW,258,5.0,16.0,51,0.00,,,0.01,weatherlink.com 1.10,2013-01-02 00:13:00,
2013-01-01 19:28:00,28.0,12.0,29.91,West,276,8.0,12.0,52,0.00,,,0.01,weatherlink.com 1.10,2013-01-02 00:28:00,
2013-01-01 19:43:00,27.6,12.0,29.90,NW,322,7.0,13.0,53,0.00,,,0.01,weatherlink.com 1.10,2013-01-02 00:43:00,
2013-01-01 19:58:00,27.3,11.0,29.91,NW,323,10.0,13.0,51,0.00,,,0.01,weatherlink.com 1.10,2013-01-02 00:58:00,
2013-01-01 20:13:00,26.9,10.0,29.92,North,356,3.0,8.0,50,0.00,,,0.01,weatherlink.com 1.10,2013-01-02 01:13:00,
2013-01-01 20:28:00,26.2,11.0,29.92,West,280,2.0,9.0,52,0.00,,,0.01,weatherlink.com 1.10,2013-01-02 01:28:00,
2013-01-01 20:43:00,25.9,10.0,29.92,NW,307,0.0,10.0,52,0.00,,,0.01,weatherlink.com 1.10,2013-01-02 01:43:00,
2013-01-01 20:58:00,25.4,10.0,29.93,North,355,2.0,7.0,52,0.00,,,0.01,weatherlink.com 1.10,2013-01-02 01:58:00,
2013-01-01 21:13:00,25.0,10.0,29.93,West,270,1.0,10.0,53,0.00,,,0.01,weatherlink.com 1.10,2013-01-02 02:13:00,
2013-01-01 21:28:00,24.3,9.0,29.93,NW,322,4.0,8.0,52,0.00,,,0.01,weatherlink.com 1.10,2013-01-02 02:28:00,
2013-01-01 21:43:00,23.8,9.0,29.94,NNW,348,1.0,9.0,53,0.00,,,0.01,weatherlink.com 1.10,2013-01-02 02:43:00,
2013-01-01 21:58:00,23.6,9.0,29.94,WSW,248,1.0,8.0,54,0.00,,,0.01,weatherlink.com 1.10,2013-01-02 02:58:00,
2013-01-01 22:13:00,23.0,8.0,29.95,WNW,301,3.0,10.0,53,0.00,,,0.01,weatherlink.com 1.10,2013-01-02 03:13:00,
2013-01-01 22:28:00,22.7,7.0,29.95,NNE,15,0.0,10.0,52,0.00,,,0.01,weatherlink.com 1.10,2013-01-02 03:28:00,
2013-01-01 22:43:00,22.4,7.0,29.96,WSW,253,3.0,9.0,52,0.00,,,0.01,weatherlink.com 1.10,2013-01-02 03:43:00,
2013-01-01 22:59:00,22.0,7.0,29.96,WSW,245,5.0,9.0,53,0.00,,,0.01,weatherlink.com 1.10,2013-01-02 03:59:00,
2013-01-01 23:14:00,21.5,6.0,29.97,NW,312,2.0,10.0,52,0.00,,,0.01,weatherlink.com 1.10,2013-01-02 04:14:00,
2013-01-01 23:29:00,21.1,6.0,29.96,NW,311,1.0,12.0,53,0.00,,,0.01,weatherlink.com 1.10,2013-01-02 04:29:00,
2013-01-01 23:44:00,20.7,6.0,29.97,West,260,2.0,10.0,53,0.00,,,0.01,weatherlink.com 1.10,2013-01-02 04:44:00,
2013-01-01 23:59:00,20.3,6.0,29.97,NE,56,0.0,8.0,53,0.00,,,0.01,weatherlink.com 1.10,2013-01-02 04:59:00,